Change the Weather History Date:

Saturday, July 20, 2013

  Actual Average Record
Temperature  
Mean Temperature 84 °F -  
Max Temperature 95 °F 82 °F 97 °F (1957)
Min Temperature 71 °F 62 °F 49 °F (1965)
Cooling Degree Days 19    
Growing Degree Days 34 (Base 50)    
Moisture  
Dew Point 72 °F    
Average Humidity 70    
Maximum Humidity 90    
Minimum Humidity 47    
Precipitation  
Precipitation 0.00 in - - ()
Sea Level Pressure  
Sea Level Pressure 29.74 in    
Wind  
Wind Speed 7 mph (WSW)    
Max Wind Speed 16 mph    
Max Gust Speed 23 mph    
Visibility 8 miles    
Events      
Averages and records for this station are not official NWS values.
T = Trace of Precipitation, MM = Missing Value Source: NWS Daily Summary

Daily Weather History Graph

Daily Weather History Graph

Search for Another Location

Airport or City:

Trip Planner

Search our weather history database for the weather conditions in past years. The results will help you decide how hot, cold, wet, or windy it might be!

Date:

Astronomy

Jul. 20, 2013 Rise Set
Actual Time 5:25 AM EDT 8:16 PM EDT
Civil Twilight 4:52 AM EDT 8:49 PM EDT
Nautical Twilight 4:10 AM EDT 9:31 PM EDT
Astronomical Twilight 3:22 AM EDT 10:19 PM EDT
Moon 6:16 PM EDT (7/20) 3:02 AM EDT (7/20)
Length of Visible Light 15h 56m
Length of Day
14h 50m
Waxing Gibbous, 93% of the Moon is Illuminated
Jul 20
Waxing Gibbous
Jul 22
Full
Jul 29
Last Quarter
Aug 6
New
Aug 14
First Quarter

Hourly Weather History & Observations

Time (EDT) Temp. Heat Index Dew Point Humidity Pressure Visibility Wind Dir Wind Speed Gust Speed Precip Events Conditions
12:56 AM 82.0 °F 87.9 °F 73.9 °F 76% 29.75 in 8.0 mi SW 6.9 mph - N/A   Clear
1:56 AM 81.0 °F 86.2 °F 73.9 °F 79% 29.76 in 7.0 mi SW 5.8 mph - N/A   Partly Cloudy
2:56 AM 80.1 °F 84.5 °F 73.9 °F 81% 29.74 in 7.0 mi SW 5.8 mph - N/A   Clear
3:56 AM 77.0 °F - 73.9 °F 90% 29.74 in 7.0 mi SSW 6.9 mph - N/A   Clear
4:56 AM 77.0 °F - 73.9 °F 90% 29.73 in 6.0 mi SSW 6.9 mph - N/A   Clear
5:56 AM 78.1 °F - 73.9 °F 87% 29.73 in 5.0 mi SW 4.6 mph - N/A   Clear
6:56 AM 80.1 °F 85.1 °F 75.0 °F 85% 29.74 in 5.0 mi SW 5.8 mph - N/A   Haze
7:56 AM 82.0 °F 88.6 °F 75.0 °F 79% 29.75 in 6.0 mi SW 8.1 mph - N/A   Haze
8:56 AM 86.0 °F 96.0 °F 75.9 °F 72% 29.74 in 7.0 mi SW 10.4 mph - N/A   Clear
9:56 AM 88.0 °F 97.5 °F 75.0 °F 65% 29.73 in 8.0 mi SW 6.9 mph - N/A   Clear
10:56 AM 90.0 °F 97.9 °F 73.0 °F 57% 29.72 in 9.0 mi West 8.1 mph - N/A   Clear
11:56 AM 91.0 °F 100.4 °F 73.9 °F 57% 29.71 in 9.0 mi West 6.9 mph - N/A   Clear
12:56 PM 89.1 °F 97.0 °F 73.0 °F 59% 29.70 in 9.0 mi Variable 6.9 mph 16.1 mph N/A   Scattered Clouds
1:56 PM 93.0 °F 99.0 °F 70.0 °F 47% 29.68 in 10.0 mi West 16.1 mph 23.0 mph N/A   Scattered Clouds
2:56 PM 93.0 °F 100.1 °F 71.1 °F 49% 29.67 in 10.0 mi West 6.9 mph - N/A   Partly Cloudy
3:56 PM 82.9 °F 88.0 °F 72.0 °F 69% 29.68 in 10.0 mi WNW 6.9 mph - 0.00 in   Clear
4:56 PM 87.1 °F 93.6 °F 72.0 °F 61% 29.70 in 10.0 mi West 5.8 mph - N/A   Partly Cloudy
5:56 PM 87.1 °F 91.3 °F 69.1 °F 55% 29.72 in 10.0 mi WSW 8.1 mph - N/A   Clear
6:56 PM 84.0 °F 87.8 °F 69.1 °F 61% 29.72 in 10.0 mi WSW 5.8 mph - N/A   Clear
7:56 PM 82.0 °F 85.9 °F 70.0 °F 67% 29.74 in 10.0 mi NW 4.6 mph - N/A   Scattered Clouds
8:56 PM 80.1 °F 82.3 °F 66.9 °F 64% 29.77 in 10.0 mi West 6.9 mph - N/A   Clear
9:56 PM 77.0 °F - 66.0 °F 69% 29.78 in 10.0 mi SW 3.5 mph - N/A   Partly Cloudy
10:56 PM 75.0 °F - 66.0 °F 73% 29.81 in 10.0 mi West 3.5 mph - N/A   Clear
11:56 PM 71.1 °F - 64.0 °F 78% 29.83 in 10.0 mi WSW 6.9 mph - N/A   Clear